User: anonymous   Login
Location: Caltech
(34.1382°N, 118.1253°W)
Time: 12:09:26
(UTC-07:00)
Language:

Cosmos 1125 Rocket - Orbit

View from above orbital plane
View from above orbital plane
View from above satellite
View from above satellite

Ground track
Ground track

The orbit data is extracted from the following two-line orbital elements,

1 11511U 79078B   15085.23562502  .00000326  00000-0  11976-3 0  9992
2 11511 074.0391 011.1693 0014561 094.9982 265.2834 14.36585682861737
Epoch (UTC): 26 March 2015 05:39:18
Eccentricity: 0.0014561
inclination: 74.0391°
perigee height: 759 km
apogee height: 780 km
right ascension of ascending node: 11.1693°
argument of perigee: 94.9982°
revolutions per day: 14.36585682
mean anomaly at epoch: 265.2834°
orbit number at epoch: 86173

The dashed part of the orbit path shows where the satellite is in the earth's shadow,  

DLR